Time,TemperatureF,DewpointF,PressureIn,WindDirection,WindDirectionDegrees,WindSpeedMPH,WindSpeedGustMPH,Humidity,HourlyPrecipIn,Conditions,Clouds,dailyrainin,SolarRadiationWatts/m^2,SoftwareType,DateUTC
2013-04-18 00:00:00,36.0,35.0,-100.00,ENE,67,4.0,-999.0,95,-99.99,,,-99.99,0.000000,,2013-04-18 05:00:00,
2013-04-18 00:42:00,36.0,35.0,-100.00,ENE,67,4.0,-999.0,95,-99.99,,,-99.99,0.000000,,2013-04-18 05:42:00,
2013-04-18 00:52:00,36.0,35.0,-100.00,ENE,67,4.0,-999.0,95,-99.99,,,-99.99,0.000000,,2013-04-18 05:52:00,
2013-04-18 01:00:00,36.0,35.0,-100.00,ENE,67,4.0,-999.0,96,-99.99,,,-99.99,0.000000,,2013-04-18 06:00:00,
2013-04-18 01:42:00,36.0,35.0,-100.00,ENE,67,4.0,-999.0,96,-99.99,,,-99.99,0.000000,,2013-04-18 06:42:00,
2013-04-18 01:52:00,36.0,35.0,-100.00,ENE,67,4.0,-999.0,96,-99.99,,,-99.99,0.000000,,2013-04-18 06:52:00,
2013-04-18 02:00:00,36.0,35.0,-100.00,ENE,67,3.0,-999.0,97,0.01,,,-99.99,0.000000,,2013-04-18 07:00:00,
2013-04-18 02:42:00,36.0,35.0,-100.00,ENE,67,3.0,-999.0,97,0.01,,,-99.99,0.000000,,2013-04-18 07:42:00,
2013-04-18 02:52:00,36.0,35.0,-100.00,ENE,67,3.0,-999.0,97,0.01,,,-99.99,0.000000,,2013-04-18 07:52:00,
2013-04-18 03:00:00,35.0,35.0,-100.00,ENE,67,3.0,-999.0,97,-99.99,,,-99.99,0.000000,,2013-04-18 08:00:00,
2013-04-18 03:42:00,35.0,35.0,-100.00,ENE,67,3.0,-999.0,97,-99.99,,,-99.99,0.000000,,2013-04-18 08:42:00,
2013-04-18 03:52:00,35.0,35.0,-100.00,ENE,67,3.0,-999.0,97,-99.99,,,-99.99,0.000000,,2013-04-18 08:52:00,
2013-04-18 04:00:00,35.0,35.0,-100.00,ENE,67,3.0,-999.0,97,-99.99,,,-99.99,0.000000,,2013-04-18 09:00:00,
2013-04-18 04:43:00,35.0,35.0,-100.00,ENE,67,3.0,-999.0,97,-99.99,,,-99.99,0.000000,,2013-04-18 09:43:00,
2013-04-18 04:53:00,35.0,35.0,-100.00,ENE,67,3.0,-999.0,97,-99.99,,,-99.99,0.000000,,2013-04-18 09:53:00,
2013-04-18 05:00:00,36.0,35.0,-100.00,ENE,67,2.0,-999.0,98,-99.99,,,-99.99,0.000000,,2013-04-18 10:00:00,
2013-04-18 05:42:00,36.0,35.0,-100.00,ENE,67,2.0,-999.0,98,-99.99,,,-99.99,0.000000,,2013-04-18 10:42:00,
2013-04-18 05:52:00,36.0,35.0,-100.00,ENE,67,2.0,-999.0,98,-99.99,,,-99.99,0.000000,,2013-04-18 10:52:00,
2013-04-18 06:00:00,36.0,36.0,-100.00,NE,45,2.0,-999.0,98,0.07,,,-99.99,0.000000,,2013-04-18 11:00:00,
2013-04-18 06:42:00,36.0,36.0,-100.00,NE,45,2.0,-999.0,98,0.07,,,-99.99,0.000000,,2013-04-18 11:42:00,
2013-04-18 06:52:00,36.0,36.0,-100.00,NE,45,2.0,-999.0,98,0.07,,,-99.99,0.000000,,2013-04-18 11:52:00,
2013-04-18 07:00:00,36.0,36.0,-100.00,NE,45,1.0,-999.0,98,0.03,,,-99.99,4.640000,,2013-04-18 12:00:00,
2013-04-18 07:42:00,36.0,36.0,-100.00,NE,45,1.0,-999.0,98,0.03,,,-99.99,4.640000,,2013-04-18 12:42:00,
2013-04-18 07:52:00,36.0,36.0,-100.00,NE,45,1.0,-999.0,98,0.03,,,-99.99,4.640000,,2013-04-18 12:52:00,
2013-04-18 08:00:00,36.0,36.0,-100.00,North,0,2.0,-999.0,98,0.02,,,-99.99,10.440000,,2013-04-18 13:00:00,
2013-04-18 08:43:00,36.0,36.0,-100.00,North,0,2.0,-999.0,98,0.02,,,-99.99,10.440000,,2013-04-18 13:43:00,
2013-04-18 08:53:00,36.0,36.0,-100.00,North,0,2.0,-999.0,98,0.02,,,-99.99,10.440000,,2013-04-18 13:53:00,
2013-04-18 09:00:00,36.0,36.0,-100.00,NNE,22,2.0,-999.0,98,0.05,,,-99.99,37.119999,,2013-04-18 14:00:00,
2013-04-18 09:43:00,36.0,36.0,-100.00,NNE,22,2.0,-999.0,98,0.05,,,-99.99,37.119999,,2013-04-18 14:43:00,
2013-04-18 09:52:00,36.0,36.0,-100.00,NNE,22,2.0,-999.0,98,0.05,,,-99.99,37.119999,,2013-04-18 14:52:00,
2013-04-18 10:00:00,38.0,37.0,-100.00,NE,45,1.0,-999.0,98,0.02,,,-99.99,46.400002,,2013-04-18 15:00:00,
2013-04-18 10:43:00,38.0,37.0,-100.00,NE,45,1.0,-999.0,98,0.02,,,-99.99,46.400002,,2013-04-18 15:43:00,
2013-04-18 10:53:00,38.0,37.0,-100.00,NE,45,1.0,-999.0,98,0.02,,,-99.99,46.400002,,2013-04-18 15:53:00,
2013-04-18 11:00:00,39.0,38.0,-100.00,ENE,67,1.0,-999.0,97,0.02,,,-99.99,100.919998,,2013-04-18 16:00:00,
2013-04-18 11:43:00,39.0,38.0,-100.00,ENE,67,1.0,-999.0,97,0.02,,,-99.99,100.919998,,2013-04-18 16:43:00,
2013-04-18 11:53:00,39.0,38.0,-100.00,ENE,67,1.0,-999.0,97,0.02,,,-99.99,100.919998,,2013-04-18 16:53:00,
2013-04-18 12:00:00,40.0,39.0,-100.00,NNE,22,3.0,-999.0,97,0.01,,,-99.99,154.279999,,2013-04-18 17:00:00,
2013-04-18 12:43:00,40.0,39.0,-100.00,NNE,22,3.0,-999.0,97,0.01,,,-99.99,154.279999,,2013-04-18 17:43:00,
2013-04-18 12:52:00,40.0,39.0,-100.00,NNE,22,3.0,-999.0,97,0.01,,,-99.99,154.279999,,2013-04-18 17:52:00,
2013-04-18 13:00:00,42.0,41.0,-100.00,NE,45,3.0,-999.0,97,-99.99,,,-99.99,280.720001,,2013-04-18 18:00:00,
2013-04-18 13:43:00,42.0,41.0,-100.00,NE,45,3.0,-999.0,97,-99.99,,,-99.99,280.720001,,2013-04-18 18:43:00,
2013-04-18 13:52:00,42.0,41.0,-100.00,NE,45,3.0,-999.0,97,-99.99,,,-99.99,280.720001,,2013-04-18 18:52:00,
2013-04-18 14:00:00,42.0,41.0,-100.00,South,180,1.0,-999.0,96,-99.99,,,-99.99,112.519997,,2013-04-18 19:00:00,
2013-04-18 14:43:00,42.0,41.0,-100.00,South,180,1.0,-999.0,96,-99.99,,,-99.99,112.519997,,2013-04-18 19:43:00,
2013-04-18 14:53:00,42.0,41.0,-100.00,South,180,1.0,-999.0,96,-99.99,,,-99.99,112.519997,,2013-04-18 19:53:00,
2013-04-18 15:00:00,37.0,36.0,-100.00,NNW,337,5.0,-999.0,96,-99.99,,,-99.99,84.680000,,2013-04-18 20:00:00,
2013-04-18 15:42:00,37.0,36.0,-100.00,NNW,337,5.0,-999.0,96,-99.99,,,-99.99,84.680000,,2013-04-18 20:42:00,
2013-04-18 15:52:00,37.0,36.0,-100.00,NNW,337,5.0,-999.0,96,-99.99,,,-99.99,84.680000,,2013-04-18 20:52:00,
2013-04-18 17:00:00,38.0,38.0,-100.00,NNE,22,3.0,-999.0,97,-99.99,,,-99.99,71.919998,,2013-04-18 22:00:00,
2013-04-18 17:42:00,38.0,38.0,-100.00,NNE,22,3.0,-999.0,97,-99.99,,,-99.99,71.919998,,2013-04-18 22:42:00,
2013-04-18 17:52:00,38.0,38.0,-100.00,NNE,22,3.0,-999.0,97,-99.99,,,-99.99,71.919998,,2013-04-18 22:52:00,
2013-04-18 18:00:00,38.0,38.0,-100.00,NE,45,2.0,-999.0,97,-99.99,,,-99.99,31.320000,,2013-04-18 23:00:00,
2013-04-18 18:42:00,38.0,38.0,-100.00,NE,45,2.0,-999.0,97,-99.99,,,-99.99,31.320000,,2013-04-18 23:42:00,
2013-04-18 18:52:00,38.0,38.0,-100.00,NE,45,2.0,-999.0,97,-99.99,,,-99.99,31.320000,,2013-04-18 23:52:00,
2013-04-18 20:00:00,37.0,36.0,-100.00,East,90,4.0,-999.0,97,-99.99,,,-99.99,2.320000,,2013-04-19 01:00:00,
2013-04-18 20:42:00,37.0,36.0,-100.00,East,90,4.0,-999.0,97,-99.99,,,-99.99,2.320000,,2013-04-19 01:42:00,
2013-04-18 20:52:00,37.0,36.0,-100.00,East,90,4.0,-999.0,97,-99.99,,,-99.99,2.320000,,2013-04-19 01:52:00,
2013-04-18 21:00:00,38.0,37.0,-100.00,SE,135,4.0,-999.0,98,0.04,,,-99.99,0.000000,,2013-04-19 02:00:00,
2013-04-18 21:42:00,38.0,37.0,-100.00,SE,135,4.0,-999.0,98,0.04,,,-99.99,0.000000,,2013-04-19 02:42:00,
2013-04-18 21:52:00,38.0,37.0,-100.00,SE,135,4.0,-999.0,98,0.04,,,-99.99,0.000000,,2013-04-19 02:52:00,
2013-04-18 22:00:00,40.0,39.0,-100.00,SSE,157,3.0,-999.0,98,0.04,,,-99.99,0.000000,,2013-04-19 03:00:00,
2013-04-18 22:43:00,40.0,39.0,-100.00,SSE,157,3.0,-999.0,98,0.04,,,-99.99,0.000000,,2013-04-19 03:43:00,
2013-04-18 22:53:00,40.0,39.0,-100.00,SSE,157,3.0,-999.0,98,0.04,,,-99.99,0.000000,,2013-04-19 03:53:00,
2013-04-18 23:00:00,45.0,44.0,-100.00,South,180,7.0,-999.0,98,0.01,,,-99.99,0.000000,,2013-04-19 04:00:00,
2013-04-18 23:43:00,45.0,44.0,-100.00,South,180,7.0,-999.0,98,0.01,,,-99.99,0.000000,,2013-04-19 04:43:00,
2013-04-18 23:52:00,45.0,44.0,-100.00,South,180,7.0,-999.0,98,0.01,,,-99.99,0.000000,,2013-04-19 04:52:00,